Date String (YYYY-MM-DD hh:mm:ss) UTC,Instrument flags,Ambient pressure (hPa),Sample flow (lpm),Bypass flow (lpm),Sample temperature (°C),Ambient temperature (°C),ASC tube jacket temperature (°C),LED temperature (°C),Box temperature (°C),Sample RH (%),Span deviation,Mass concentration (μg/m³),Mass concentration (μg/m³),Mass concentration (μg/m³)
DateTimeUTC,F1_M11,P_M11,Q1_M11,Q2_M11,T1_M11,T2_M11,T3_M11,T4_M11,T5_M11,U1_M11,ZSPAN_M11,X0_M11,X2_M11,X1_M11
2023-05-24 03:00:00,,0830.3,4.99,0.00,29.4,28.0,00.0,37.7,31.2,25.0,0003.6,0050.08,0029.18,0027.73
2023-05-24 03:01:00,,0830.3,5.00,0.00,29.5,28.0,00.0,37.7,31.2,25.1,0003.7,0050.09,0029.20,0027.75
2023-05-24 03:02:00,,0830.3,5.00,0.00,29.5,28.1,00.0,37.7,31.2,25.0,0003.7,0051.79,0029.21,0027.75
2023-05-24 03:03:00,,0830.3,5.00,0.00,29.5,28.2,00.0,37.8,31.2,25.0,0003.7,0051.30,0029.29,0027.80
2023-05-24 03:04:00,,0830.3,5.00,0.00,29.5,28.2,00.0,37.8,31.3,25.0,0003.7,0051.00,0029.33,0027.81
2023-05-24 03:05:00,,0830.3,5.00,0.00,29.6,28.3,00.0,37.8,31.3,24.9,0003.6,0052.41,0029.38,0027.80
2023-05-24 03:06:00,,0830.3,5.00,0.00,29.6,28.3,00.0,37.8,31.3,25.0,0003.7,0052.82,0029.39,0027.77
2023-05-24 03:07:00,,0830.3,5.00,0.00,29.6,27.1,00.0,37.8,31.2,25.0,0003.7,0051.60,0029.37,0027.73
2023-05-24 03:08:00,,0830.3,5.00,0.00,29.5,25.6,00.0,37.7,31.0,25.0,0003.7,0051.39,0029.34,0027.70
2023-05-24 03:09:00,,0830.2,5.00,0.00,29.5,25.4,00.0,37.6,30.8,25.4,0003.7,0051.25,0029.25,0027.60
2023-05-24 03:10:00,,0830.2,5.00,0.00,29.4,25.6,00.0,37.6,30.8,25.5,0003.8,0050.15,0029.18,0027.54
2023-05-24 03:11:00,,0830.2,4.99,0.00,29.3,25.9,00.0,37.6,30.8,25.5,0003.8,0049.93,0029.18,0027.51
2023-05-24 03:12:00,,0830.2,5.00,0.00,29.3,26.2,00.0,37.6,30.8,25.6,0003.7,0049.58,0029.12,0027.49
2023-05-24 03:13:00,,0830.3,5.00,0.00,29.3,26.6,00.0,37.6,30.8,25.7,0003.6,0048.81,0029.07,0027.46
2023-05-24 03:14:00,,0830.3,5.01,0.00,29.3,26.8,00.0,37.6,30.9,25.7,0003.6,0048.48,0028.96,0027.39
2023-05-24 03:15:00,,0830.3,4.98,0.00,29.3,27.1,00.0,37.6,30.9,25.8,0003.6,0047.86,0028.95,0027.34
2023-05-24 03:16:00,,0830.3,4.99,0.00,29.3,27.3,00.0,37.6,31.0,25.9,0003.7,0047.18,0028.97,0027.34
2023-05-24 03:17:00,,0830.3,5.00,0.00,29.3,27.4,00.0,37.6,31.0,25.9,0003.7,0046.08,0029.01,0027.34
2023-05-24 03:18:00,,0830.4,5.01,0.00,29.3,27.6,00.0,37.7,31.0,26.1,0003.7,0045.52,0028.93,0027.28
2023-05-24 03:19:00,,0830.4,5.01,0.00,29.3,27.7,00.0,37.7,31.0,26.0,0003.7,0045.65,0028.87,0027.22
2023-05-24 03:20:00,,0830.4,5.00,0.00,29.4,27.8,00.0,37.7,31.1,26.2,0003.7,0045.81,0028.82,0027.20
2023-05-24 03:21:00,,0830.4,5.00,0.00,29.4,27.9,00.0,37.7,31.1,26.1,0003.6,0046.31,0028.79,0027.18
2023-05-24 03:22:00,,0830.4,4.99,0.00,29.4,27.9,00.0,37.7,31.1,26.0,0003.7,0047.95,0028.72,0027.14
2023-05-24 03:23:00,,0830.4,5.00,0.00,29.4,28.0,00.0,37.7,31.1,26.1,0003.7,0047.64,0028.61,0027.06
2023-05-24 03:24:00,,0830.4,4.99,0.00,29.5,28.1,00.0,37.7,31.2,26.0,0003.7,0047.12,0028.56,0026.97
2023-05-24 03:25:00,,0830.4,5.01,0.00,29.5,28.1,00.0,37.7,31.2,25.9,0003.7,0046.99,0028.64,0026.97
2023-05-24 03:26:00,,0830.5,5.00,0.00,29.5,28.1,00.0,37.8,31.2,25.9,0003.7,0046.25,0028.57,0026.92
2023-05-24 03:27:00,,0830.4,5.00,0.00,29.5,28.2,00.0,37.8,31.3,25.6,0003.6,0047.35,0028.58,0026.94
2023-05-24 03:28:00,,0830.4,4.99,0.00,29.6,28.2,00.0,37.8,31.3,25.7,0003.5,0048.63,0028.55,0026.96
2023-05-24 03:29:00,,0830.6,4.99,0.00,29.6,28.3,00.0,37.8,31.3,25.8,0003.5,0050.07,0028.59,0027.03
2023-05-24 03:30:00,,0830.7,5.00,0.00,29.6,28.3,00.0,37.8,31.3,25.8,0003.6,0050.38,0028.63,0027.09
2023-05-24 03:31:00,,0830.6,5.00,0.00,29.6,27.1,00.0,37.8,31.2,26.2,0003.6,0050.90,0028.61,0027.07
2023-05-24 03:32:00,,0830.8,5.01,0.00,29.6,25.5,00.0,37.7,31.0,26.7,0003.6,0051.12,0028.54,0026.97
2023-05-24 03:33:00,,0830.4,5.01,0.00,29.5,25.2,00.0,37.7,30.8,26.8,0003.5,0048.92,0028.33,0026.80
2023-05-24 03:34:00,,0830.6,5.01,0.00,29.4,25.4,00.0,37.7,30.7,27.1,0003.5,0048.20,0028.21,0026.66
2023-05-24 03:35:00,,0830.7,4.99,0.00,29.3,25.8,00.0,37.6,30.7,27.4,0003.5,0048.54,0028.11,0026.56
2023-05-24 03:36:00,,0830.4,5.00,0.00,29.3,26.1,00.0,37.6,30.8,27.5,0003.5,0048.15,0027.80,0026.31
2023-05-24 03:37:00,,0830.4,5.01,0.00,29.3,26.5,00.0,37.6,30.8,27.7,0003.5,0048.31,0027.59,0026.07
2023-05-24 03:38:00,,0830.5,5.00,0.00,29.3,26.7,00.0,37.6,30.8,27.8,0003.6,0046.12,0027.20,0025.73
2023-05-24 03:39:00,,0830.5,4.99,0.00,29.3,27.0,00.0,37.6,30.9,27.9,0003.6,0045.64,0026.91,0025.40
2023-05-24 03:40:00,,0830.4,4.99,0.00,29.3,27.2,00.0,37.6,30.9,28.3,0003.6,0043.43,0026.47,0024.97
2023-05-24 03:41:00,,0830.6,4.99,0.00,29.3,27.3,00.0,37.6,30.9,28.3,0003.6,0042.91,0026.07,0024.56
2023-05-24 03:42:00,,0830.5,5.01,0.00,29.3,27.5,00.0,37.6,31.0,28.2,0003.6,0041.98,0025.70,0024.22
2023-05-24 03:43:00,,0830.6,5.01,0.00,29.3,27.6,00.0,37.6,31.0,28.4,0003.7,0041.31,0025.44,0023.96
2023-05-24 03:44:00,,0830.5,5.00,0.00,29.3,27.7,00.0,37.6,31.0,28.6,0003.7,0040.81,0025.13,0023.67
2023-05-24 03:45:00,,0830.6,4.99,0.00,29.3,27.7,00.0,37.7,31.0,28.7,0003.6,0040.88,0024.69,0023.24
2023-05-24 03:46:00,,0830.6,4.99,0.00,29.4,27.8,00.0,37.7,31.1,28.7,0003.6,0039.47,0024.23,0022.83
2023-05-24 03:47:00,,0830.6,5.01,0.00,29.4,27.9,00.0,37.7,31.1,28.8,0003.6,0038.92,0023.82,0022.45
2023-05-24 03:48:00,,0830.6,5.01,0.00,29.4,27.9,00.0,37.7,31.1,28.8,0003.6,0038.34,0023.41,0022.10
2023-05-24 03:49:00,,0830.6,5.00,0.00,29.4,28.0,00.0,37.7,31.1,28.8,0003.6,0038.65,0023.08,0021.80
2023-05-24 03:50:00,,0830.7,4.99,0.00,29.4,28.0,00.0,37.7,31.1,28.8,0003.6,0036.78,0022.69,0021.44
2023-05-24 03:51:00,,0830.7,4.99,0.00,29.5,28.1,00.0,37.7,31.2,28.8,0003.7,0036.94,0022.50,0021.21
2023-05-24 03:52:00,,0830.7,5.00,0.00,29.5,28.1,00.0,37.8,31.2,28.9,0003.7,0036.19,0022.22,0020.92
2023-05-24 03:53:00,,0830.7,5.01,0.00,29.5,28.2,00.0,37.8,31.2,28.8,0003.6,0035.39,0021.92,0020.57
2023-05-24 03:54:00,,0830.7,5.01,0.00,29.5,28.2,00.0,37.8,31.2,28.9,0003.5,0034.52,0021.54,0020.22
2023-05-24 03:55:00,,0830.7,5.00,0.00,29.6,28.2,00.0,37.8,31.3,28.8,0003.4,0034.39,0021.29,0019.98
2023-05-24 03:56:00,,0830.7,5.00,0.00,29.6,28.3,00.0,37.8,31.3,28.8,0003.4,0033.48,0021.13,0019.81
2023-05-24 03:57:00,,0830.7,4.99,0.00,29.6,28.3,00.0,37.9,31.3,28.7,0003.4,0033.62,0020.99,0019.64
2023-05-24 03:58:00,,0830.7,5.00,0.00,29.6,28.3,00.0,37.9,31.3,28.7,0003.4,0033.80,0020.85,0019.47
2023-05-24 03:59:00,,0830.7,5.00,0.00,29.7,28.4,00.0,37.9,31.4,28.6,0003.3,0033.27,0020.68,0019.30
